Location: Newark
(49.0000°N, 1.1667°E)
Time: 17:24:18
(UTC+00:00)

Falcon 9 debris - Visible Passes

Search period start: 17 July 2019 00:00
Search period end: 27 July 2019 00:00
Orbit: 431 x 439 km, 53.0° (Epoch: 17 July)

Date Brightness Start Highest point End Pass type
(mag) Time Alt. Az. Time Alt. Az. Time Alt. Az.
17 Jul 5.2 01:08:23 17° ESE 01:08:23 17° ESE 01:10:06 10° E visible
17 Jul 3.1 02:41:39 16° WSW 02:44:21 86° SSE 02:47:48 10° ENE visible
18 Jul 3.1 02:00:45 33° SW 02:02:06 65° SSE 02:05:31 10° ENE visible
19 Jul 3.4 01:19:49 46° SSE 01:19:53 47° SSE 01:23:13 10° ENE visible
19 Jul 3.9 02:53:34 10° W 02:56:57 52° NNW 03:00:20 10° ENE visible
20 Jul 4.6 00:38:50 26° ESE 00:38:50 26° ESE 00:40:52 10° ENE visible
20 Jul 3.5 02:12:06 17° W 02:14:38 61° NNW 02:18:04 10° ENE visible
20 Jul 5.6 23:57:50 13° E 23:57:50 13° E 23:58:25 10° E visible
21 Jul 3.2 01:31:05 36° W 01:32:21 76° NNW 01:35:48 10° ENE visible
21 Jul 4.4 03:06:23 10° WNW 03:09:41 41° N 03:12:59 10° ENE visible
22 Jul 2.9 00:50:01 84° S 00:50:04 84° SSE 00:53:32 10° ENE visible
22 Jul 4.3 02:24:01 10° W 02:27:20 42° N 02:30:39 10° ENE visible
23 Jul 4.1 00:08:55 38° E 00:08:55 38° E 00:11:15 10° ENE visible
23 Jul 4.1 01:42:10 14° W 01:44:59 46° N 01:48:20 10° ENE visible
23 Jul 4.2 03:19:05 10° WNW 03:22:26 46° N 03:25:47 10° E visible
23 Jul 5.1 23:27:44 19° E 23:27:44 19° E 23:28:55 10° ENE visible
24 Jul 3.9 01:01:00 26° W 01:02:39 52° NNW 01:06:03 10° ENE visible
24 Jul 4.4 02:36:46 10° WNW 02:40:05 42° N 02:43:24 10° E visible
24 Jul 5.8 22:46:28 11° ENE 22:46:28 11° ENE 22:46:33 10° ENE visible
25 Jul 3.5 00:19:43 50° WNW 00:20:20 62° NNW 00:23:45 10° ENE visible
25 Jul 4.5 01:54:26 10° WNW 01:57:43 41° N 02:01:01 10° ENE visible
25 Jul 3.3 03:31:36 10° WNW 03:35:04 78° NNE 03:38:30 10° ESE visible
25 Jul 3.2 23:38:14 72° NNE 23:38:14 72° NNE 23:41:29 10° ENE visible
26 Jul 4.4 01:12:04 10° WNW 01:15:21 41° N 01:18:39 10° ENE visible
26 Jul 3.6 02:49:19 10° WNW 02:52:45 63° NNE 02:56:11 10° E visible
26 Jul 3.3 22:56:17 60° ENE 22:56:17 60° ENE 22:59:12 10° ENE visible
